FENGYUN 1C DEB

Satellite information

Favourite Embed

Satellite Type and Status

DEBRISIN ORBIT

Key statistics

Satellite FENGYUN 1C DEB at a glance.

Uptime

9715

Days in orbit

Revolutions

≈ 14.3

Per day

Orbit

SSO

Sun Synchronous Orbit

Inclination

98.8

Latest

Satellite identification and parameters

Extended collection of information and parameters for FENGYUN 1C DEB.

Object identification

Identified? True

Debris? True

Object name: FENGYUN 1C DEB

International designator: 1999-025UN

Object number (NORAD): 30181

Object ID (CCSDS): 30181

Country: PEOPLES REPUBLIC OF CHINA (PRC)

Current information (Y/N): Y

RCS size: SMALL

Orbital parameters

Period: 100.752 minutes

Inclination: 98.8431 deg

SMA: 7172.369 km

Apoapsis: 822.972 km

Periapsis: 765.496 km

RAAN: 70.4247 deg

Eccentricy: 0.00400676

Argument of periapsis: 358.4609 deg

Mean anomaly: 55.9121 deg

Mean motion: 14.29252146 rev/day

Mean motion (dot): 0.00005787 rev/day2

B* drag term: 0.0022728548 1/REarth

Two-line elements (TLE)

Creation date: Dec. 13, 2025, 5:47 p.m.

Reference frame: TEME

Reference center: EARTH

Epoch: Dec. 13, 2025, 5:02 a.m. UTC

TLE line 0: 0 FENGYUN 1C DEB

TLE line 1: 1 30181U 99025UN 25347.21036801 .00005787 00000-0 22729-2 0 9991

TLE line 2: 2 30181 98.8431 70.4247 0040068 358.4609 55.9121 14.29252146975184

Live tracking on map

Real-time ground track for satellite FENGYUN 1C DEB.

In-orbit conjunctions

A list of the most updated potential collisions computed for object FENGYUN 1C DEB.

Target Orbit TCA Probability of collision Miss distance Type
THORAD AGENA D DEB LEO 2025-08-27 10:10:33 0.0001637821 243.0 (m) DEBRIS
DELTA 1 DEB SSO 2025-07-05 23:10:12 0.001316498 34.0 (m) DEBRIS
NOAA 11 SSO 2025-01-07 01:48:51 0.0002043094 828.0 (m) PAYLOAD
FENGYUN 1C DEB SSO 2024-11-12 13:13:38 0.002249871 132.0 (m) DEBRIS
METEOR 1-19 LEO 2024-11-12 11:57:59 0.00143062 411.0 (m) PAYLOAD

Associated space launch

Chinese polar orbiting meteorological satellite

FENGYUN 1C DEB was lifted into orbit during the mission ‘Long March 4B | Feng Yun 1C’, on board a Long March 4B space rocket.

The launch took place on May 10, 1999, 1:33 a.m. from Launch Complex 7.

For more information about the launch, click the button.

Launch to space Long March 4B | Feng Yun 1C
Long March 4B | Feng Yun 1C

Agency: N/A

Status: Launch Successful

Launch date: May 10, 1999, 1:33 a.m. UTC

Rocket: Long March 4B

Launch pad: Launch Complex 7

Location: Taiyuan Satellite Launch Center, People's Republic of China

...

Latest news about this satellite

There are no fresh news available about this satellite. Check back as we update our databases every day.


Newsletter sign-up

Weekly statistics, charts and insights to help you stay on top of the space industry.